| time (UTC) | temp F | wind direction | speed MPH | gust MPH | rain 1hr in | rain 24hr in | rain mn in | humidity % | barometer mb |
| 20260504030503 | 60 | 252 | 3.0 | 4.0 | 0.00 | 0.00 | 0.00 | 65 | 999.2 |
| 20260504030002 | 60 | 264 | 2.0 | 3.0 | 0.00 | 0.00 | 0.00 | 64 | 999.2 |
| 20260504025502 | 60 | 267 | 2.0 | 3.0 | 0.00 | 0.00 | 0.00 | 64 | 999.3 |
| 20260504025002 | 60 | 263 | 2.0 | 3.0 | 0.00 | 0.00 | 0.00 | 64 | 999.3 |
| 20260504024502 | 60 | 264 | 1.0 | 2.0 | 0.00 | 0.00 | 0.00 | 64 | 999.4 |
| 20260504023502 | 60 | 237 | 3.0 | 4.0 | 0.00 | 0.00 | 0.00 | 63 | 999.3 |
| 20260504022501 | 60 | 251 | 2.0 | 4.0 | 0.00 | 0.00 | 0.00 | 63 | 999.3 |
| 20260504022002 | 61 | 270 | 2.0 | 3.0 | 0.00 | 0.00 | 0.00 | 63 | 999.4 |
| 20260504021501 | 61 | 270 | 1.0 | 2.0 | 0.00 | 0.00 | 0.00 | 63 | 999.3 |
| 20260504021002 | 61 | 267 | 1.0 | 2.0 | 0.00 | 0.00 | 0.00 | 62 | 999.3 |
| 20260504020502 | 61 | 262 | 1.0 | 2.0 | 0.00 | 0.00 | 0.00 | 62 | 999.2 |
| 20260504020001 | 62 | 268 | 2.0 | 2.0 | 0.00 | 0.00 | 0.00 | 61 | 999.0 |
| 20260504015502 | 62 | 256 | 2.0 | 3.0 | 0.00 | 0.00 | 0.00 | 61 | 998.9 |
| 20260504014501 | 62 | 254 | 4.0 | 4.0 | 0.00 | 0.00 | 0.00 | 60 | 999.0 |
| 20260504014003 | 62 | 263 | 2.0 | 3.0 | 0.00 | 0.00 | 0.00 | 59 | 998.8 |
| 20260504013502 | 62 | 273 | 3.0 | 4.0 | 0.00 | 0.00 | 0.00 | 59 | 999.0 |
| 20260504013002 | 63 | 255 | 2.0 | 3.0 | 0.00 | 0.00 | 0.00 | 59 | 998.7 |
| 20260504012502 | 63 | 235 | 5.0 | 5.0 | 0.00 | 0.00 | 0.00 | 58 | 998.8 |
| 20260504012002 | 63 | 260 | 2.0 | 3.0 | 0.00 | 0.00 | 0.00 | 58 | 998.6 |
| 20260504011502 | 64 | 243 | 3.0 | 3.0 | 0.00 | 0.00 | 0.00 | 58 | 998.7 |
| 20260504011002 | 64 | 263 | 4.0 | 5.0 | 0.00 | 0.00 | 0.00 | 57 | 998.6 |
| 20260504010002 | 64 | 262 | 2.0 | 3.0 | 0.00 | 0.00 | 0.00 | 56 | 998.7 |
| 20260504005502 | 64 | 275 | 2.0 | 3.0 | 0.00 | 0.00 | 0.00 | 56 | 998.5 |
| 20260504005002 | 64 | 267 | 2.0 | 3.0 | 0.00 | 0.00 | 0.00 | 55 | 998.7 |
| 20260504004002 | 65 | 263 | 2.0 | 3.0 | 0.00 | 0.00 | 0.00 | 54 | 998.5 |
| 20260504003502 | 65 | 277 | 2.0 | 3.0 | 0.00 | 0.00 | 0.00 | 54 | 998.6 |
| 20260504003002 | 66 | 261 | 3.0 | 4.0 | 0.00 | 0.00 | 0.00 | 53 | 998.6 |
| 20260504002001 | 67 | 270 | 4.0 | 6.0 | 0.00 | 0.00 | 0.00 | 51 | 998.6 |
| 20260504001502 | 67 | 239 | 2.0 | 4.0 | 0.00 | 0.00 | 0.00 | 52 | 998.6 |
| 20260504001002 | 67 | 219 | 2.0 | 4.0 | 0.00 | 0.00 | 0.00 | 51 | 998.7 |
| 20260504000501 | 68 | 280 | 3.0 | 3.0 | 0.00 | 0.00 | 0.00 | 50 | 998.8 |
| 20260504000003 | 68 | 269 | 5.0 | 6.0 | 0.00 | 0.00 | 0.00 | 49 | 998.9 |
| 20260503235501 | 68 | 273 | 3.0 | 4.0 | 0.00 | 0.00 | 0.00 | 49 | 998.6 |
| 20260503235003 | 68 | 275 | 3.0 | 4.0 | 0.00 | 0.00 | 0.00 | 48 | 998.6 |
| 20260503234502 | 69 | 263 | 4.0 | 4.0 | 0.00 | 0.00 | 0.00 | 48 | 998.6 |
| 20260503233002 | 69 | 274 | 4.0 | 5.0 | 0.00 | 0.00 | 0.00 | 47 | 998.7 |
| 20260503232502 | 69 | 244 | 3.0 | 4.0 | 0.00 | 0.00 | 0.00 | 48 | 998.7 |
| 20260503232002 | 69 | 255 | 4.0 | 5.0 | 0.00 | 0.00 | 0.00 | 47 | 998.8 |
| 20260503231502 | 69 | 221 | 6.0 | 10.0 | 0.00 | 0.00 | 0.00 | 46 | 998.7 |
| 20260503231002 | 69 | 254 | 4.0 | 5.0 | 0.00 | 0.00 | 0.00 | 45 | 998.7 |
| 20260503230501 | 69 | 257 | 5.0 | 6.0 | 0.00 | 0.00 | 0.00 | 46 | 998.6 |
| 20260503230003 | 70 | 262 | 6.0 | 9.0 | 0.00 | 0.00 | 0.00 | 45 | 998.5 |
| 20260503225501 | 70 | 263 | 3.0 | 4.0 | 0.00 | 0.00 | 0.00 | 47 | 998.9 |
| 20260503225002 | 69 | 269 | 6.0 | 9.0 | 0.00 | 0.00 | 0.00 | 47 | 998.9 |
| 20260503224502 | 69 | 275 | 7.0 | 11.0 | 0.00 | 0.00 | 0.00 | 46 | 998.8 |
| 20260503224002 | 68 | 267 | 7.0 | 10.0 | 0.00 | 0.00 | 0.00 | 48 | 998.8 |
| 20260503223502 | 68 | 214 | 6.0 | 10.0 | 0.00 | 0.00 | 0.00 | 47 | 999.0 |
| 20260503223002 | 68 | 240 | 4.0 | 5.0 | 0.00 | 0.00 | 0.00 | 48 | 999.1 |
| 20260503222502 | 68 | 280 | 6.0 | 10.0 | 0.00 | 0.00 | 0.00 | 47 | 999.3 |
| 20260503222001 | 68 | 282 | 3.0 | 4.0 | 0.00 | 0.00 | 0.00 | 47 | 998.9 |
| 20260503221501 | 68 | 222 | 6.0 | 9.0 | 0.00 | 0.00 | 0.00 | 46 | 998.9 |
| 20260503221003 | 69 | 256 | 6.0 | 10.0 | 0.00 | 0.00 | 0.00 | 46 | 999.3 |
| 20260503220002 | 68 | 274 | 3.0 | 4.0 | 0.00 | 0.00 | 0.00 | 47 | 999.4 |
| 20260503215502 | 68 | 293 | 5.0 | 6.0 | 0.00 | 0.00 | 0.00 | 46 | 999.2 |
| 20260503215002 | 68 | 182 | 7.0 | 10.0 | 0.00 | 0.00 | 0.00 | 46 | 999.4 |
| 20260503214502 | 67 | 247 | 4.0 | 4.0 | 0.00 | 0.00 | 0.00 | 48 | 999.5 |
| 20260503214003 | 68 | 205 | 3.0 | 5.0 | 0.00 | 0.00 | 0.00 | 48 | 999.5 |
| 20260503213502 | 67 | 258 | 4.0 | 6.0 | 0.00 | 0.00 | 0.00 | 47 | 999.5 |
| 20260503213002 | 66 | 306 | 3.0 | 4.0 | 0.00 | 0.00 | 0.00 | 48 | 999.6 |
| 20260503212502 | 66 | 254 | 9.0 | 12.0 | 0.00 | 0.00 | 0.00 | 48 | 999.8 |
| 20260503211501 | 67 | 244 | 9.0 | 13.0 | 0.00 | 0.00 | 0.00 | 46 | 999.7 |
| 20260503211002 | 66 | 268 | 5.0 | 7.0 | 0.00 | 0.00 | 0.00 | 49 | 1000.0 |
| 20260503210502 | 66 | 224 | 10.0 | 13.0 | 0.00 | 0.00 | 0.00 | 46 | 1000.0 |
| 20260503210002 | 67 | 246 | 8.0 | 11.0 | 0.00 | 0.00 | 0.00 | 46 | 1000.2 |
| 20260503205502 | 67 | 270 | 4.0 | 6.0 | 0.00 | 0.00 | 0.00 | 48 | 1000.2 |
| 20260503205003 | 67 | 261 | 6.0 | 7.0 | 0.00 | 0.00 | 0.00 | 46 | 1000.5 |
| 20260503204502 | 67 | 220 | 8.0 | 12.0 | 0.00 | 0.00 | 0.00 | 45 | 1000.4 |
| 20260503204002 | 67 | 230 | 6.0 | 9.0 | 0.00 | 0.00 | 0.00 | 45 | 1000.4 |
| 20260503203001 | 64 | 239 | 6.0 | 9.0 | 0.00 | 0.00 | 0.00 | 46 | 1000.8 |
| 20260503202501 | 64 | 226 | 9.0 | 14.0 | 0.00 | 0.00 | 0.00 | 47 | 1000.9 |
| 20260503202002 | 65 | 253 | 5.0 | 9.0 | 0.00 | 0.00 | 0.00 | 46 | 1001.0 |
| 20260503201502 | 66 | 256 | 5.0 | 6.0 | 0.00 | 0.00 | 0.00 | 45 | 1001.1 |
| 20260503200502 | 66 | 245 | 8.0 | 9.0 | 0.00 | 0.00 | 0.00 | 47 | 1001.1 |
| 20260503200002 | 66 | 247 | 8.0 | 13.0 | 0.00 | 0.00 | 0.00 | 47 | 1001.2 |
| 20260503195502 | 64 | 248 | 7.0 | 10.0 | 0.00 | 0.00 | 0.00 | 48 | 1001.6 |
| 20260503195002 | 63 | 233 | 3.0 | 5.0 | 0.00 | 0.00 | 0.00 | 50 | 1001.2 |
| 20260503194502 | 64 | 276 | 6.0 | 10.0 | 0.00 | 0.00 | 0.00 | 50 | 1001.4 |
| 20260503194002 | 64 | 223 | 6.0 | 7.0 | 0.00 | 0.00 | 0.00 | 53 | 1001.3 |
| 20260503193501 | 64 | 208 | 13.0 | 15.0 | 0.00 | 0.00 | 0.00 | 52 | 1001.5 |
| 20260503193002 | 64 | 213 | 6.0 | 11.0 | 0.00 | 0.00 | 0.00 | 55 | 1001.4 |
| 20260503192502 | 63 | 243 | 5.0 | 6.0 | 0.00 | 0.00 | 0.00 | 57 | 1001.4 |
| 20260503192002 | 62 | 253 | 5.0 | 6.0 | 0.00 | 0.00 | 0.00 | 58 | 1001.6 |
| 20260503191501 | 62 | 244 | 9.0 | 13.0 | 0.00 | 0.00 | 0.00 | 60 | 1001.8 |
| 20260503191002 | 61 | 274 | 7.0 | 11.0 | 0.00 | 0.00 | 0.00 | 61 | 1001.8 |
| 20260503190502 | 60 | 254 | 4.0 | 7.0 | 0.00 | 0.00 | 0.00 | 60 | 1001.7 |
| 20260503190002 | 60 | 218 | 14.0 | 19.0 | 0.00 | 0.00 | 0.00 | 59 | 1001.8 |
| 20260503185501 | 60 | 273 | 10.0 | 13.0 | 0.00 | 0.00 | 0.00 | 61 | 1001.9 |
| 20260503185002 | 60 | 259 | 4.0 | 5.0 | 0.00 | 0.00 | 0.00 | 62 | 1002.2 |
| 20260503184502 | 59 | 255 | 9.0 | 12.0 | 0.00 | 0.00 | 0.00 | 62 | 1002.3 |
| 20260503183502 | 60 | 284 | 2.0 | 3.0 | 0.00 | 0.00 | 0.00 | 65 | 1002.4 |
| 20260503183002 | 59 | 271 | 1.0 | 2.0 | 0.00 | 0.00 | 0.00 | 66 | 1002.8 |
| 20260503182502 | 58 | 243 | 3.0 | 5.0 | 0.00 | 0.00 | 0.00 | 66 | 1002.8 |
| 20260503182002 | 57 | 249 | 7.0 | 11.0 | 0.00 | 0.00 | 0.00 | 66 | 1002.6 |
| 20260503181502 | 56 | 252 | 6.0 | 10.0 | 0.00 | 0.00 | 0.00 | 66 | 1002.8 |
| 20260503181002 | 56 | 224 | 4.0 | 6.0 | 0.00 | 0.00 | 0.00 | 67 | 1003.0 |
| 20260503180501 | 57 | 215 | 6.0 | 7.0 | 0.00 | 0.00 | 0.00 | 67 | 1003.1 |
| 20260503175002 | 55 | 254 | 2.0 | 4.0 | 0.00 | 0.00 | 0.00 | 72 | 1003.3 |
| 20260503174502 | 54 | 270 | 1.0 | 3.0 | 0.00 | 0.00 | 0.00 | 73 | 1003.6 |
| 20260503174002 | 54 | 260 | 4.0 | 9.0 | 0.00 | 0.00 | 0.00 | 74 | 1003.7 |
| 20260503173501 | 53 | 265 | 9.0 | 12.0 | 0.00 | 0.00 | 0.00 | 75 | 1004.4 |
| 20260503173001 | 53 | 239 | 2.0 | 5.0 | 0.00 | 0.00 | 0.00 | 79 | 1004.5 |
| 20260503172502 | 53 | 243 | 2.0 | 4.0 | 0.00 | 0.00 | 0.00 | 80 | 1004.5 |
| 20260503172002 | 53 | 245 | 4.0 | 5.0 | 0.00 | 0.00 | 0.00 | 81 | 1004.6 |
| 20260503171502 | 52 | 271 | 4.0 | 5.0 | 0.00 | 0.00 | 0.00 | 83 | 1004.9 |
| 20260503150501 | 54 | 227 | 4.0 | 5.0 | 0.00 | 0.00 | 0.00 | 64 | 1006.4 |
| 20260503130502 | 49 | 244 | 5.0 | 6.0 | 0.00 | 0.00 | 0.00 | 67 | 1007.1 |
| 20260503110501 | 46 | 222 | 5.0 | 7.0 | 0.00 | 0.00 | 0.00 | 69 | 1006.7 |
| 20260503090502 | 44 | 262 | 2.0 | 2.0 | 0.00 | 0.00 | 0.00 | 68 | 1007.4 |
| 20260503081502 | 44 | 267 | 2.0 | 4.0 | 0.00 | 0.00 | 0.00 | 67 | 1007.6 |
| 20260503081001 | 44 | 265 | 2.0 | 3.0 | 0.00 | 0.00 | 0.00 | 67 | 1007.6 |
| 20260503080502 | 44 | 273 | 2.0 | 3.0 | 0.00 | 0.00 | 0.00 | 66 | 1007.7 |
| 20260503072501 | 43 | 262 | 2.0 | 3.0 | 0.00 | 0.00 | 0.00 | 67 | 1007.9 |
| 20260503072002 | 43 | 271 | 1.0 | 2.0 | 0.00 | 0.00 | 0.00 | 67 | 1008.0 |
| 20260503071502 | 43 | 264 | 2.0 | 3.0 | 0.00 | 0.00 | 0.00 | 68 | 1007.7 |
| 20260503071001 | 43 | 269 | 1.0 | 2.0 | 0.00 | 0.00 | 0.00 | 68 | 1007.7 |
| 20260503054002 | 44 | 267 | 1.0 | 2.0 | 0.00 | 0.00 | 0.00 | 65 | 1008.7 |
| 20260503053501 | 44 | 267 | 0.0 | 0.0 | 0.00 | 0.00 | 0.00 | 65 | 1008.6 |
| 20260503053001 | 44 | 265 | 1.0 | 2.0 | 0.00 | 0.00 | 0.00 | 66 | 1008.5 |
| 20260503052502 | 43 | 264 | 1.0 | 2.0 | 0.00 | 0.00 | 0.00 | 68 | 1008.5 |
| 20260503052002 | 43 | 265 | 1.0 | 2.0 | 0.00 | 0.00 | 0.00 | 68 | 1008.8 |
| 20260503051502 | 43 | 265 | 0.0 | 0.0 | 0.00 | 0.00 | 0.00 | 68 | 1008.8 |
| 20260503051002 | 43 | 265 | 0.0 | 0.0 | 0.00 | 0.00 | 0.00 | 68 | 1008.5 |
| 20260503050502 | 43 | 265 | 0.0 | 0.0 | 0.00 | 0.00 | 0.00 | 69 | 1008.6 |
| 20260503045502 | 42 | 265 | 1.0 | 2.0 | 0.00 | 0.00 | 0.00 | 71 | 1008.7 |
| 20260503045002 | 42 | 266 | 0.0 | 0.0 | 0.00 | 0.00 | 0.00 | 72 | 1008.7 |
| 20260503044003 | 42 | 266 | 0.0 | 0.0 | 0.00 | 0.00 | 0.00 | 71 | 1008.8 |
| 20260503043501 | 42 | 266 | 0.0 | 0.0 | 0.00 | 0.00 | 0.00 | 71 | 1008.8 |
| 20260503042502 | 43 | 266 | 0.0 | 0.0 | 0.00 | 0.00 | 0.00 | 70 | 1008.9 |
| 20260503042003 | 43 | 265 | 0.0 | 0.0 | 0.00 | 0.00 | 0.00 | 71 | 1008.8 |
| 20260503041502 | 43 | 267 | 0.0 | 0.0 | 0.00 | 0.00 | 0.00 | 71 | 1008.9 |
| 20260503041003 | 42 | 267 | 0.0 | 0.0 | 0.00 | 0.00 | 0.00 | 72 | 1008.7 |
| 20260503040502 | 42 | 267 | 0.0 | 0.0 | 0.00 | 0.00 | 0.00 | 73 | 1008.9 |
| 20260503040002 | 42 | 267 | 0.0 | 0.0 | 0.00 | 0.00 | 0.00 | 74 | 1009.0 |
| 20260503035502 | 41 | 267 | 0.0 | 0.0 | 0.00 | 0.00 | 0.00 | 75 | 1009.0 |
| 20260503034501 | 41 | 267 | 0.0 | 0.0 | 0.00 | 0.00 | 0.00 | 74 | 1009.0 |
| 20260503034002 | 41 | 267 | 0.0 | 0.0 | 0.00 | 0.00 | 0.00 | 74 | 1009.1 |
| 20260503033502 | 41 | 267 | 0.0 | 0.0 | 0.00 | 0.00 | 0.00 | 73 | 1008.9 |
| 20260503033002 | 42 | 267 | 0.0 | 0.0 | 0.00 | 0.00 | 0.00 | 72 | 1009.1 |
| 20260503032002 | 42 | 267 | 0.0 | 0.0 | 0.00 | 0.00 | 0.00 | 72 | 1008.9 |
| 20260503031502 | 42 | 267 | 0.0 | 0.0 | 0.00 | 0.00 | 0.00 | 72 | 1008.9 |
| 20260503031002 | 42 | 267 | 0.0 | 0.0 | 0.00 | 0.00 | 0.00 | 72 | 1009.1 |